Temperature
21 21 21 21 25 25 24 24 24 24 24 23 22 23 23 22 22 21 18 18 18 17 17 17 18 17 17 17 17 17 17 17 17 17 17 17 17 17 17 17 17 17 17 17 17 17 17 17 17
21 22 21 23 26 25 23 24 24 24 23 22 22 22 22 21 20 19 18 18 18 17 17 17 17 17 17 17 17 17 17 17 17 17 17 17 17 17 17 17 17 17 17 17 17 17 17 17 17
21 22 23 25 25 25 24 24 24 23 22 22 22 22 22 20 19 19 18 18 18 17 17 17 17 17 17 17 17 17 17 17 17 17 17 17 17 17 17 17 17 17 17 17 17 17 17 17 17
21 22 24 25 24 24 24 24 24 23 23 22 23 22 21 19 19 19 18 18 18 17 17 17 17 17 17 17 17 17 17 17 17 17 17 17 17 17 17 17 17 17 17 17 17 17 17 17 17
21 24 25 24 24 24 24 24 24 24 23 23 23 22 21 19 18 18 18 18 18 17 17 17 17 17 17 17 17 17 17 17 17 17 17 17 17 17 17 17 16 16 16 17 16 17 17 17 17
23 25 25 24 24 24 24 23 23 24 23 22 22 22 21 19 18 18 18 17 17 17 17 17 17 17 17 17 17 17 17 17 17 16 16 16 16 16 16 16 16 16 16 16 16 17 17 16 17
24 25 25 24 24 24 24 23 24 24 23 23 22 22 21 19 18 18 18 17 17 17 17 17 16 16 17 17 17 17 17 17 17 16 16 16 16 16 16 16 16 16 16 16 16 16 16 16 16
23 25 25 24 24 24 24 23 23 23 23 21 21 22 21 19 18 18 18 17 17 17 17 17 16 16 16 16 16 16 16 16 16 16 16 16 16 16 16 16 16 16 16 16 16 16 16 16 16
23 25 24 24 24 24 24 23 22 22 22 21 21 21 20 19 18 18 18 18 17 17 17 17 16 16 16 16 16 16 16 16 16 16 16 16 16 16 16 16 16 16 16 16 16 16 16 16 16
24 25 24 24 25 24 24 23 23 22 22 22 21 20 19 19 19 19 19 18 18 18 17 17 17 16 16 16 16 16 16 16 16 16 16 16 16 16 16 16 16 16 16 16 16 16 16 16 15
25 25 24 24 24 24 23 23 23 23 23 22 22 20 19 19 19 19 19 19 18 18 17 17 17 17 16 16 16 16 16 16 16 15 16 16 16 16 15 15 15 15 15 15 16 15 15 15 15
24 24 24 24 23 23 23 23 22 22 22 22 21 20 19 19 19 19 19 19 18 18 17 17 17 17 17 16 16 16 16 16 16 16 16 16 16 16 15 15 15 15 15 15 15 15 15 15 15
24 24 23 23 23 23 23 23 22 22 21 21 20 20 19 19 19 19 19 18 18 17 17 17 16 16 16 16 16 16 15 16 16 16 15 16 16 15 15 15 15 15 15 15 15 15 15 15 15
24 24 23 23 23 23 23 23 22 22 21 21 20 20 20 19 19 19 19 18 18 17 17 17 16 16 16 16 16 15 15 15 15 15 15 16 15 15 15 15 15 15 15 15 15 15 15 15 15
23 24 24 23 23 23 23 23 23 22 21 21 21 20 20 19 19 19 19 18 18 18 17 17 16 16 16 16 16 15 15 15 15 15 15 15 15 15 15 15 15 15 15 15 15 15 15 15 15
24 24 24 24 23 23 23 23 23 21 21 21 21 21 20 19 19 19 18 18 18 17 17 17 16 16 16 16 15 15 15 15 15 15 15 15 15 15 15 15 15 15 15 15 15 15 15 15 14
24 24 24 24 23 23 23 23 23 21 21 22 21 21 20 19 19 19 18 18 18 17 17 17 16 16 16 16 15 15 15 15 15 15 15 15 15 15 15 15 15 15 14 14 14 14 14 14 14
24 24 24 24 24 23 23 23 23 21 21 21 21 21 20 20 19 18 18 17 17 17 17 17 16 16 16 16 15 15 15 15 15 15 15 15 15 15 15 15 15 14 14 14 14 14 14 14 14
24 24 24 24 24 23 23 23 23 22 21 21 21 21 20 19 19 18 18 17 17 17 17 17 16 16 16 16 15 15 15 15 15 15 15 15 15 15 15 15 14 14 14 14 14 14 14 14 14
23 23 23 23 23 23 23 22 23 22 21 21 21 21 20 19 19 18 17 17 17 17 17 17 16 16 16 16 15 15 15 15 15 15 15 15 15 15 15 14 14 14 14 14 14 14 14 14 14
23 23 23 23 22 23 22 22 22 22 21 20 20 20 20 19 19 18 17 17 17 17 17 16 16 16 16 15 15 15 15 15 15 15 14 14 14 14 14 14 14 14 14 14 14 14 14 14 14
23 23 23 22 22 23 22 22 23 22 22 21 20 19 19 18 18 18 17 17 17 17 16 16 16 16 15 15 15 15 15 15 15 14 14 14 14 14 14 14 14 14 14 14 14 14 14 14 14
23 22 22 22 23 23 23 22 23 22 21 21 20 19 18 18 17 17 17 17 17 16 16 16 16 15 15 15 15 15 15 14 14 14 14 14 14 14 14 14 14 14 14 14 14 14 14 14 14
22 22 22 22 23 22 23 22 23 22 21 21 20 19 18 17 17 17 16 16 16 16 16 16 16 15 15 15 15 15 15 14 14 14 14 14 14 14 14 14 14 14 14 14 14 14 14 14 14
22 22 22 22 22 22 22 22 22 21 21 20 20 19 18 17 17 16 16 16 16 16 16 15 15 15 15 15 15 15 14 14 14 14 14 14 14 14 14 14 14 14 14 14 14 14 14 14 14
22 23 22 21 22 22 22 22 22 21 20 19 18 18 17 17 16 16 16 16 16 15 15 15 15 15 15 15 15 14 14 14 14 14 14 14 14 14 14 14 14 14 14 14 14 14 14 14 14
22 22 22 22 22 22 22 22 21 20 20 19 18 17 17 16 16 16 16 16 15 15 15 15 15 15 14 14 14 14 14 14 14 14 14 14 14 14 14 14 13 14 14 14 13 13 14 14 14
21 22 22 22 21 21 22 21 21 20 19 19 18 17 16 16 15 15 15 15 15 15 15 15 15 14 14 14 14 14 14 14 14 14 14 14 13 13 13 13 13 13 13 13 13 13 14 14 14
20 21 21 21 21 21 21 21 21 20 19 19 18 17 16 16 15 15 15 15 15 15 14 14 14 14 14 14 14 14 14 14 14 14 14 13 13 13 13 13 13 13 13 13 13 13 13 13 13
20 20 21 20 20 20 21 21 20 19 19 18 17 16 15 15 15 15 15 15 15 15 14 14 14 14 14 14 14 14 14 13 13 13 13 13 13 13 13 13 13 13 13 13 13 13 13 13 13
Wind_Speed
3 2 2 2 2 4 7 6 5 5 5 6 6 5 6 6 5 5 4 3 3 3 4 6 5 5 6 7 7 7 8 8 8 8 7 7 7 7 7 7 8 8 8 8 7 7 8 9 9
1 1 2 1 1 5 7 5 6 6 6 5 5 5 6 6 6 5 4 3 3 4 4 5 5 4 5 6 7 7 8 8 8 7 8 7 7 7 7 7 8 8 8 8 8 7 8 9 9
2 2 1 1 4 6 6 6 6 7 5 3 4 5 5 5 5 4 4 4 4 5 4 6 5 4 5 6 7 7 7 7 7 7 7 8 8 8 7 7 8 8 8 8 8 8 8 8 8
2 1 1 4 9 7 6 6 5 6 4 4 4 6 5 5 3 4 5 4 4 4 5 6 4 4 5 5 5 6 6 7 7 7 7 6 7 7 8 8 8 8 8 8 8 9 9 9 9
1 0 4 6 8 6 6 5 4 4 4 4 4 6 6 5 5 5 5 4 4 4 4 5 5 4 4 5 5 5 6 6 6 6 6 6 6 7 7 8 7 8 8 8 8 9 9 9 9
1 1 3 6 7 6 5 4 4 5 5 5 4 5 5 5 5 5 4 4 4 4 4 5 5 3 3 4 4 5 5 5 5 5 5 6 6 7 7 7 7 8 8 8 9 9 9 10 10
0 2 4 6 6 5 4 3 3 4 5 4 3 4 5 6 5 5 5 5 4 3 3 3 3 3 3 4 3 4 5 5 5 5 6 6 7 7 7 8 8 8 9 9 10 10 10 10 10
0 2 5 4 4 4 4 4 3 2 4 4 2 2 4 6 6 5 5 4 4 3 3 3 2 2 2 3 4 3 4 4 5 5 6 5 6 8 7 8 9 9 10 10 10 10 11 11 10
1 2 3 3 3 4 5 4 4 3 4 4 3 4 5 7 7 5 4 3 4 3 3 2 2 2 2 3 4 3 4 4 3 5 5 3 5 7 7 10 10 10 10 11 11 11 10 10 11
1 2 3 2 3 4 5 4 4 4 4 4 4 5 6 7 6 5 3 3 3 3 3 3 2 2 2 2 2 2 2 3 2 3 4 4 5 6 7 10 10 10 10 11 10 9 7 4 7
1 2 4 3 3 4 5 3 2 3 2 3 4 6 7 7 5 4 3 3 3 4 4 3 3 3 3 2 2 2 2 2 3 3 4 4 5 5 5 6 7 7 7 7 7 6 6 7 7
3 3 2 3 4 3 3 3 2 2 0 2 4 6 7 7 5 4 3 3 3 3 3 3 3 3 3 3 2 2 2 2 3 3 3 3 3 4 4 4 5 5 5 5 5 5 7 8 8
3 2 3 3 3 3 3 3 2 2 2 3 5 6 7 6 5 4 3 3 3 3 3 3 3 3 3 3 2 2 2 2 3 3 3 3 3 3 4 4 5 5 5 5 5 5 7 7 7
3 3 3 2 3 3 3 3 3 2 3 5 5 6 6 5 5 4 3 2 2 2 2 2 2 2 2 2 2 3 3 3 3 3 3 3 4 3 3 4 4 4 5 5 5 6 6 5 6
4 3 3 3 3 3 3 3 3 3 4 5 5 5 5 5 4 4 3 2 2 2 2 2 1 1 2 2 3 3 3 3 3 3 3 3 3 4 4 3 4 4 5 5 5 6 5 5 5
4 5 4 3 3 3 5 4 1 3 5 5 5 5 5 5 4 4 3 2 2 2 2 3 2 1 2 2 2 3 3 3 3 2 2 3 3 4 4 4 4 4 5 4 4 4 4 5 5
6 6 5 3 3 4 6 5 1 2 5 5 5 5 5 5 4 4 3 2 2 2 2 2 2 2 2 2 2 3 3 3 3 2 2 2 3 4 4 4 4 4 4 3 4 4 4 5 5
5 6 5 4 2 5 6 5 4 2 4 5 4 5 5 5 5 4 3 2 2 2 2 2 2 2 2 2 2 3 3 3 3 3 3 3 3 3 4 4 4 4 3 3 3 5 4 4 4
5 6 6 4 2 4 6 5 4 3 4 5 5 5 5 5 5 4 4 3 3 2 2 2 2 2 2 2 1 2 2 2 2 3 3 3 3 3 4 3 4 4 3 4 4 4 5 4 4
7 8 6 4 2 4 6 6 5 3 4 5 5 5 5 5 5 4 4 4 4 3 3 2 2 2 2 1 1 2 2 2 2 2 2 3 3 3 3 3 3 3 3 4 5 4 3 3 2
8 8 7 5 4 5 6 6 5 4 3 3 3 4 4 5 5 5 5 4 4 4 3 2 3 3 2 2 2 2 2 2 2 2 1 2 2 2 2 3 3 3 3 4 5 5 5 4 3
7 5 5 5 7 5 5 6 4 3 3 2 3 3 3 4 4 5 5 4 4 4 3 3 3 3 2 2 2 3 2 1 1 1 1 2 2 2 1 2 3 3 3 3 4 4 4 3 3
3 2 4 6 7 8 7 7 3 3 4 3 2 3 3 3 4 4 4 4 4 3 3 3 3 2 2 2 2 2 2 1 1 1 2 2 2 2 1 1 2 3 3 3 3 3 4 3 3
3 3 4 5 7 8 6 7 4 2 4 3 1 2 3 4 4 4 4 4 4 4 3 3 3 3 2 2 2 2 2 2 2 2 2 2 2 1 1 1 2 3 3 4 3 3 3 3 4
6 6 4 5 6 4 2 5 3 2 2 2 1 1 3 4 4 4 4 3 3 4 3 3 4 4 3 3 3 3 3 2 2 2 2 2 2 1 1 2 2 2 2 3 3 4 4 4 5
6 7 5 4 4 3 3 5 0 2 1 1 1 1 3 4 4 3 3 3 3 3 3 3 4 4 4 4 4 3 3 3 2 3 2 2 2 2 2 2 2 2 2 3 3 4 4 4 4
5 6 5 7 6 7 4 3 1 2 2 3 2 3 3 3 3 3 3 2 2 2 3 3 3 3 4 4 4 4 3 3 3 3 3 2 2 2 2 3 3 2 2 3 3 3 4 4 4
3 3 4 6 5 6 5 5 2 2 1 2 2 2 2 2 3 2 2 2 2 2 2 2 2 2 3 3 3 3 3 4 3 3 3 3 3 3 3 4 4 3 3 3 3 3 3 4 4
3 4 5 5 6 6 5 2 1 1 1 1 1 1 1 2 2 2 1 1 1 1 2 2 1 1 2 2 3 3 3 3 4 4 4 4 4 4 4 4 4 4 4 4 4 4 4 5 5
4 5 6 6 6 6 7 3 2 2 2 1 1 1 1 1 1 1 1 1 0 1 1 1 1 2 2 2 2 3 2 3 3 4 4 4 4 4 4 5 5 4 4 5 5 5 5 5 5
Wind_Direction
190 200 232 244 184 95 80 77 79 83 73 64 60 63 65 51 38 71 85 79 65 96 102 109 90 78 74 77 75 76 77 81 83 82 83 84 85 86 87 88 89 87 86 83 80 79 80 77 77
184 208 240 246 111 101 85 82 84 76 89 96 75 70 74 70 59 85 95 83 77 91 98 93 92 85 80 81 79 75 75 78 78 81 82 84 86 87 87 89 88 87 87 84 80 78 81 81 80
181 249 301 76 73 76 91 87 92 97 92 87 85 65 61 75 80 86 87 103 93 89 91 90 91 89 86 83 79 76 74 76 73 74 77 79 82 86 85 87 88 88 87 84 82 81 81 82 82
230 215 144 93 88 74 86 96 106 118 99 72 90 90 84 70 73 86 104 107 100 94 90 89 90 89 88 85 80 77 76 76 73 71 74 75 77 81 83 84 86 87 87 85 82 80 79 80 81
243 214 115 102 91 89 89 88 102 106 96 86 91 97 97 81 85 97 105 100 93 87 86 93 89 87 88 85 78 72 71 72 71 72 76 77 77 81 82 82 84 87 87 85 82 80 80 79 81
216 171 121 106 104 103 100 100 108 98 96 97 100 103 99 106 107 103 100 96 90 84 85 95 100 82 81 79 71 69 71 69 69 69 73 76 78 80 81 81 82 86 87 86 82 81 82 81 80
76 101 104 112 117 117 106 108 104 101 100 91 99 103 114 122 115 116 109 99 89 84 87 93 100 112 124 104 77 69 71 69 74 72 76 81 83 84 84 84 84 86 90 88 86 84 81 81 81
340 133 121 117 127 116 125 125 102 96 94 93 104 101 116 134 136 130 115 106 95 85 80 81 82 81 99 111 104 84 78 76 81 80 79 89 104 101 96 93 89 89 90 90 88 86 83 82 80
238 161 117 121 137 124 144 144 118 106 117 112 97 79 94 131 143 139 125 109 97 84 76 74 73 81 80 81 104 119 123 110 118 111 109 127 101 96 99 84 90 90 90 90 88 87 88 92 90
213 122 97 109 137 130 144 144 139 149 137 132 128 120 122 141 150 144 125 101 88 76 65 61 66 76 81 79 94 105 104 106 100 94 98 90 85 86 92 97 96 96 98 97 93 99 110 104 92
114 100 109 125 138 138 147 141 147 169 144 155 151 145 147 151 152 141 119 93 77 73 73 63 56 62 70 88 78 76 87 94 97 89 100 100 99 102 101 106 111 105 109 100 104 108 85 84 77
125 110 126 129 142 157 160 151 151 203 124 109 136 142 152 159 157 147 124 95 92 83 75 66 49 54 57 73 80 80 89 93 93 94 94 102 97 95 97 99 95 94 91 90 91 86 87 83 83
145 131 125 137 148 165 159 175 190 241 196 138 141 147 155 160 158 149 132 112 100 90 84 72 52 48 54 67 69 82 77 82 95 87 87 103 103 101 107 104 101 96 94 98 93 90 86 79 74
128 145 156 165 172 181 181 205 217 241 170 162 163 167 170 170 167 157 148 132 114 107 96 90 70 62 62 85 82 81 80 87 85 92 91 107 113 117 115 107 103 99 96 93 99 93 87 83 75
148 165 185 199 197 196 208 233 229 219 182 179 176 175 173 174 173 174 169 165 138 116 106 95 85 83 64 75 82 83 92 83 87 92 95 106 117 130 123 112 111 111 110 107 102 97 91 89 84
193 215 220 195 205 204 226 247 192 183 194 197 191 180 178 178 183 180 172 164 143 129 111 102 99 87 81 83 96 91 91 85 80 85 95 103 122 129 122 118 117 118 115 109 109 107 102 98 89
217 232 238 218 208 210 226 254 250 194 205 206 203 193 184 179 184 180 166 164 151 139 125 121 102 97 97 96 100 92 95 89 83 81 77 100 113 122 126 122 122 123 119 117 122 116 112 106 98
232 242 248 251 213 218 231 247 250 207 212 219 212 207 193 189 189 179 167 164 153 144 138 122 109 99 108 114 111 107 99 90 79 75 75 89 111 118 117 128 135 136 134 132 128 122 118 111 110
262 257 262 273 265 242 247 253 259 232 219 225 218 210 201 195 178 166 169 169 161 151 149 129 128 118 115 123 123 110 105 99 85 71 74 90 111 120 124 134 141 150 154 154 146 139 135 133 129
243 251 260 264 252 253 262 265 263 250 234 237 233 217 205 194 174 169 173 176 167 157 161 149 136 130 124 118 118 115 119 111 97 86 93 103 115 125 140 157 155 158 162 164 162 160 156 151 174
241 253 261 270 265 245 266 256 234 220 220 225 233 229 213 200 184 174 175 175 169 164 168 162 150 144 142 136 112 107 114 117 115 99 94 102 114 128 158 170 168 171 178 179 183 184 180 175 179
249 260 254 251 252 260 251 276 237 219 217 223 222 211 206 197 190 179 176 174 175 171 168 168 160 159 149 141 139 142 143 136 132 133 121 114 110 128 151 164 173 180 192 194 198 198 198 191 181
267 240 237 249 260 264 244 263 250 206 243 255 223 199 203 192 183 177 177 179 173 164 166 173 164 165 156 157 156 176 161 156 149 150 140 132 114 107 127 146 181 192 197 211 213 206 212 208 207
176 194 215 234 250 255 248 253 267 235 266 277 228 182 189 181 171 168 166 167 161 158 162 171 174 173 170 181 186 200 183 171 168 170 164 160 141 135 134 168 200 206 205 214 222 221 220 222 220
214 232 240 228 227 246 211 247 270 6 310 275 264 194 172 167 165 159 154 160 161 163 164 173 181 186 188 198 209 213 213 201 195 199 198 201 188 188 188 195 211 224 226 223 216 220 219 220 218
225 241 257 271 265 266 223 243 43 44 41 75 115 127 145 150 156 159 161 166 168 168 169 177 188 192 197 206 215 222 219 223 216 214 212 219 228 231 225 224 223 221 223 226 217 218 214 218 218
226 234 273 274 274 269 240 222 189 90 97 90 93 107 126 144 151 159 162 168 168 171 175 179 187 193 199 210 218 225 225 225 225 227 229 229 232 240 230 227 233 223 218 222 220 226 221 221 221
280 235 233 245 259 259 244 240 240 185 131 94 84 99 119 141 146 141 142 162 161 165 173 178 189 206 216 218 225 229 229 228 229 230 230 235 234 237 238 230 229 218 220 222 224 229 231 224 215
207 217 236 249 259 265 264 238 55 188 178 159 103 102 123 150 170 168 160 136 152 156 165 180 200 217 237 243 237 233 232 235 232 233 235 238 237 231 232 239 243 234 227 219 216 227 223 228 219
251 242 236 250 254 261 272 265 89 123 138 146 117 105 123 147 166 178 171 144 123 195 201 217 233 243 249 251 248 243 241 238 240 238 240 242 242 238 235 237 239 235 232 227 221 221 224 229 230
Height
1525 1524 1524 1525 1524 1523 1530 1531 1528 1530 1531 1534 1534 1533 1534 1535 1537 1544 1545 1542 1542 1542 1541 1541 1540 1539 1539 1539 1538 1538 1538 1537 1537 1537 1536 1536 1536 1536 1536 1536 1536 1536 1536 1536 1536 1536 1536 1535 1535
1525 1525 1527 1526 1522 1529 1535 1531 1531 1532 1535 1536 1536 1536 1536 1539 1541 1543 1543 1543 1543 1543 1542 1542 1541 1540 1540 1540 1540 1539 1539 1538 1538 1538 1537 1537 1537 1537 1537 1537 1537 1537 1537 1537 1537 1537 1537 1536 1536
1526 1526 1528 1524 1526 1530 1535 1532 1532 1535 1537 1536 1537 1538 1539 1542 1543 1544 1544 1544 1544 1543 1543 1542 1542 1541 1541 1541 1541 1540 1540 1540 1539 1539 1539 1539 1539 1539 1538 1538 1538 1538 1538 1538 1538 1538 1538 1537 1537
1527 1529 1528 1525 1531 1531 1531 1532 1534 1535 1537 1538 1537 1539 1542 1545 1545 1546 1545 1545 1545 1544 1544 1543 1542 1542 1542 1542 1542 1541 1541 1541 1540 1540 1540 1540 1540 1540 1539 1539 1539 1539 1539 1539 1539 1539 1538 1538 1538
1528 1528 1526 1530 1533 1533 1533 1534 1535 1535 1537 1538 1539 1540 1544 1546 1545 1546 1546 1546 1546 1546 1545 1544 1543 1543 1543 1543 1543 1542 1542 1542 1542 1541 1541 1541 1541 1540 1540 1540 1540 1540 1540 1540 1540 1540 1540 1539 1539
1530 1527 1528 1533 1535 1534 1534 1536 1537 1536 1538 1540 1540 1541 1545 1547 1546 1547 1546 1546 1546 1546 1546 1545 1544 1544 1544 1544 1544 1543 1543 1543 1542 1542 1542 1542 1541 1541 1541 1541 1541 1541 1541 1541 1541 1541 1541 1540 1540
1530 1527 1530 1532 1535 1535 1536 1538 1537 1537 1539 1541 1542 1542 1545 1547 1547 1547 1547 1547 1547 1546 1546 1546 1546 1545 1544 1544 1544 1544 1544 1543 1543 1543 1543 1542 1542 1542 1542 1542 1542 1542 1542 1542 1542 1542 1542 1542 1541
1530 1529 1531 1532 1535 1536 1537 1539 1540 1540 1541 1543 1543 1543 1545 1548 1547 1548 1548 1548 1547 1547 1547 1546 1546 1546 1546 1545 1545 1544 1544 1544 1544 1544 1543 1543 1543 1543 1543 1543 1543 1543 1543 1543 1543 1543 1543 1543 1543
1531 1529 1532 1533 1535 1535 1537 1539 1541 1542 1542 1543 1544 1545 1546 1547 1548 1549 1549 1549 1548 1548 1547 1547 1547 1546 1546 1546 1545 1545 1545 1545 1545 1545 1545 1545 1545 1545 1545 1544 1544 1544 1544 1544 1544 1544 1544 1544 1544
1531 1530 1532 1533 1533 1535 1537 1539 1540 1541 1542 1543 1545 1546 1546 1547 1548 1549 1549 1549 1549 1549 1548 1548 1547 1547 1547 1546 1546 1546 1546 1546 1546 1546 1546 1546 1546 1546 1545 1545 1546 1546 1546 1546 1546 1546 1546 1547 1547
1530 1531 1532 1534 1536 1537 1538 1539 1541 1540 1541 1543 1544 1546 1546 1547 1548 1549 1549 1549 1549 1549 1548 1548 1548 1547 1547 1546 1546 1546 1546 1546 1546 1547 1547 1547 1547 1547 1547 1547 1547 1548 1548 1548 1548 1548 1548 1549 1548
1532 1533 1534 1535 1537 1538 1538 1540 1541 1541 1542 1543 1544 1545 1546 1547 1548 1549 1549 1549 1549 1549 1549 1548 1548 1548 1547 1547 1546 1546 1546 1547 1547 1547 1547 1547 1547 1548 1548 1548 1549 1549 1549 1549 1550 1550 1550 1550 1550
1532 1534 1536 1537 1538 1538 1539 1540 1541 1542 1543 1544 1544 1545 1546 1547 1548 1549 1549 1550 1550 1549 1549 1548 1548 1548 1547 1547 1546 1547 1547 1547 1547 1547 1548 1548 1548 1548 1549 1549 1549 1550 1550 1550 1550 1551 1551 1552 1552
1534 1535 1536 1537 1537 1538 1539 1539 1541 1541 1543 1543 1544 1545 1546 1547 1548 1548 1549 1549 1550 1549 1549 1549 1548 1548 1548 1548 1547 1547 1547 1547 1548 1548 1548 1549 1549 1549 1549 1550 1550 1550 1551 1551 1552 1552 1552 1553 1553
1535 1535 1535 1536 1537 1538 1538 1538 1539 1541 1542 1543 1543 1544 1545 1546 1547 1548 1549 1549 1550 1550 1550 1549 1549 1548 1548 1548 1548 1548 1548 1548 1548 1548 1549 1549 1550 1550 1550 1550 1551 1551 1551 1552 1552 1553 1553 1554 1554
1533 1533 1534 1534 1535 1537 1539 1539 1537 1539 1541 1541 1542 1543 1545 1546 1547 1548 1548 1549 1550 1550 1550 1549 1549 1548 1548 1548 1548 1548 1548 1548 1548 1549 1549 1550 1550 1551 1550 1551 1551 1552 1552 1553 1553 1554 1554 1555 1555
1531 1532 1533 1533 1534 1535 1536 1536 1536 1539 1539 1540 1541 1542 1544 1545 1546 1547 1548 1549 1549 1549 1550 1550 1549 1549 1548 1548 1548 1548 1549 1548 1549 1549 1549 1549 1550 1551 1551 1551 1552 1552 1553 1553 1554 1554 1555 1556 1556
1532 1531 1532 1532 1532 1533 1534 1534 1535 1537 1538 1538 1540 1541 1542 1543 1545 1546 1547 1548 1548 1549 1549 1549 1549 1549 1548 1548 1549 1548 1549 1549 1549 1549 1549 1549 1550 1551 1551 1551 1552 1553 1553 1554 1554 1555 1555 1556 1556
1529 1530 1531 1531 1531 1533 1532 1532 1532 1535 1536 1537 1538 1539 1540 1542 1544 1545 1546 1547 1547 1548 1549 1549 1549 1549 1548 1548 1549 1548 1549 1549 1549 1549 1549 1549 1550 1551 1551 1552 1552 1553 1554 1554 1555 1555 1556 1557 1557
1530 1532 1531 1531 1531 1532 1531 1531 1530 1532 1534 1535 1536 1537 1538 1540 1542 1543 1544 1545 1546 1547 1548 1548 1549 1549 1548 1548 1549 1549 1549 1549 1549 1549 1549 1550 1550 1551 1551 1552 1552 1553 1554 1554 1555 1555 1556 1557 1558
1530 1530 1530 1532 1532 1531 1532 1531 1529 1530 1532 1534 1535 1536 1537 1538 1540 1541 1543 1544 1545 1546 1547 1547 1548 1548 1548 1548 1549 1549 1549 1549 1549 1549 1549 1550 1550 1551 1551 1552 1552 1553 1554 1554 1555 1555 1556 1557 1558
1530 1528 1529 1531 1532 1530 1532 1533 1526 1526 1529 1531 1533 1534 1535 1537 1538 1540 1541 1542 1544 1545 1546 1547 1547 1548 1548 1548 1548 1549 1549 1549 1549 1549 1549 1550 1550 1550 1551 1551 1552 1552 1553 1554 1555 1555 1556 1557 1557
1528 1529 1529 1530 1529 1529 1528 1531 1523 1524 1527 1528 1530 1532 1534 1536 1537 1538 1539 1541 1542 1543 1544 1545 1546 1546 1547 1547 1547 1548 1548 1549 1549 1549 1549 1550 1550 1550 1550 1551 1551 1552 1552 1553 1554 1554 1555 1555 1556
1529 1530 1529 1528 1527 1534 1526 1528 1525 1523 1525 1526 1529 1531 1533 1535 1536 1537 1538 1540 1541 1542 1543 1543 1544 1545 1546 1546 1547 1547 1548 1548 1548 1548 1549 1549 1549 1549 1550 1550 1550 1551 1552 1552 1552 1553 1553 1554 1555
1528 1530 1534 1534 1534 1529 1525 1527 1525 1523 1525 1527 1529 1530 1532 1533 1535 1536 1537 1538 1539 1540 1541 1542 1542 1543 1544 1545 1546 1546 1547 1547 1548 1548 1548 1548 1549 1549 1549 1549 1550 1550 1550 1551 1551 1551 1552 1552 1553
1526 1525 1533 1538 1533 1526 1526 1525 1522 1524 1527 1528 1529 1530 1531 1533 1534 1535 1536 1537 1538 1539 1539 1540 1541 1542 1542 1543 1544 1545 1545 1546 1546 1546 1547 1547 1548 1548 1548 1548 1548 1549 1549 1549 1550 1550 1550 1551 1552
1526 1524 1523 1526 1527 1530 1522 1520 1522 1524 1526 1528 1529 1530 1531 1532 1533 1535 1535 1536 1537 1538 1538 1538 1539 1540 1541 1542 1542 1543 1544 1544 1544 1545 1545 1545 1546 1546 1546 1546 1547 1547 1547 1548 1548 1548 1549 1549 1550
1526 1524 1526 1528 1533 1532 1525 1523 1522 1524 1525 1527 1529 1530 1532 1533 1533 1534 1535 1535 1536 1536 1537 1538 1538 1539 1539 1540 1540 1541 1541 1542 1542 1543 1543 1543 1544 1544 1544 1545 1545 1545 1545 1546 1546 1547 1547 1548 1548
1528 1529 1526 1525 1525 1529 1528 1525 1519 1522 1525 1527 1529 1531 1532 1533 1533 1533 1534 1534 1535 1535 1536 1536 1537 1537 1537 1538 1539 1539 1539 1540 1540 1540 1541 1541 1542 1542 1542 1542 1543 1543 1544 1544 1544 1545 1545 1546 1546
1527 1526 1526 1530 1528 1526 1526 1527 1521 1523 1526 1528 1530 1531 1532 1532 1533 1533 1533 1533 1534 1534 1535 1535 1535 1535 1536 1536 1537 1537 1537 1537 1537 1538 1538 1538 1539 1539 1540 1540 1541 1541 1541 1541 1542 1542 1543 1544 1544